Weather in Limbyayakha

Russia / Yamalo-Nenets Autonomous Okrug     66°01′18″N   78°04′46″E
temp.,
°C
wind,
m/s
gust,
m/s
humid.,
%
clouds,
%
prec.,
mm/h
press.,
hPa
HPBL,
m
27 february, sat
sat2723:00−28wsw229888 0.1 102319
02:00−28wsw119990 0.1 102219
05:00−29w1110091 0.1 102319
08:00−30nnw009991 0.1 102319
11:00−27nne119692 0.1 102386
14:00−27nne119480 0.0 1024143
17:00−31ene129957 0.0 102519
20:00−32ese229870 0.0 102619
28 february, sun
sun2823:00−34se2210066 0.0 102619
02:00−34sse239815 0.0 102619
05:00−34sse239819 0.0 102719
08:00−34sse349840 0.0 102732
11:00−30sse359622 0.0 1027191
14:00−28sse359544 0.0 1028203
17:00−30sse449734 0.0 102742
20:00−31sse459739 0.0 102756
1 march, mon
mon123:00−31sse449857 0.0 102770
02:00−31s449884 0.0 102666
05:00−31sse449888 0.0 102658
08:00−31s469866 0.0 1025101
11:00−27s579580 0.0 1024243
14:00−24s5794100 0.0 1022285
17:00−26s4996100 0.0 1022147
20:00−27s51097100 0.0 1021145
2 march, tue
tue223:00−28s5109593 0.0 1020167
02:00−28s5109681 0.0 1019157
05:00−28s5109457 0.0 1019161
08:00−27s7119499 0.0 1018242
11:00−24s71391100 0.0 1018342
14:00−22s71291100 0.0 1018392
17:00−22s71390100 0.0 1017334
20:00−24s7149087 0.0 1017274
3 march, wed
wed323:00−24s7138993 0.0 1017278
02:00−24s71289100 0.0 1017286
05:00−25s71391100 0.0 1017266
08:00−25s71393100 0.0 1017292
11:00−23s71292100 0.0 1017373
14:00−22sse71391100 0.0 1017418
17:00−23sse71394100 0.0 1016338
20:00−22sse71493100 0.0 1016334